SCP
-0 -0 0 0 0 0 0 0 0 0 -0 -0 0 -0 -0 -0 0 -0 0 0 -0 -0 0 -0 -0 0 0 -0 -0 -0 0 0 -0 -0 -0 -0 -0 -0 -0 -0 -0 0 0 0 0 0 0 0 0
-0 -0 0 0 0 0 0 0 -0 -0 0 0 -0 0 -0 0 0 -0 0 0 -0 -0 0 -0 -0 -0 0 -0 -0 -0 0 -0 -0 -0 -0 -0 -0 -0 -0 0 0 0 0 0 0 0 0 0 -0
-0 0 0 0 0 0 0 0 -0 -0 0 0 0 -0 0 0 0 -0 0 -0 -0 0 0 0 -0 -0 0 -0 -0 -0 0 -0 -0 -0 -0 -0 -0 -0 -0 0 0 0 0 0 0 0 0 0 -0
-0 0 -0 0 -0 0 0 -0 -0 -0 0 -0 -0 0 -0 -0 -0 0 -0 -0 0 0 0 -0 -0 -0 -0 0 -0 0 -0 -0 -0 -0 -0 -0 -0 -0 -0 0 0 0 0 0 0 0 0 0 -0
-0 -0 0 -0 0 -0 0 -0 -0 0 0 -0 -0 0 0 -0 -0 -0 -0 -0 -0 0 0 0 -0 -0 -0 -0 -0 -0 -0 -0 -0 -0 -0 0 -0 0 -0 0 0 0 0 0 0 0 0 -0 -0
-0 -0 0 0 -0 0 0 -0 -0 0 0 -0 -0 0 0 0 -0 -0 0 0 0 0 0 0 -0 -0 -0 -0 -0 -0 -0 0 -0 -0 -0 0 -0 -0 0 -0 0 0 0 0 0 -0 -0 -0 -0
0 0 0 0 0 -0 -0 -0 0 -0 0 0 -0 0 -0 -0 -0 0 0 0 0 0 0 0 0 -0 -0 -0 -0 -0 -0 0 0 0 -0 0 -0 0 0 -0 -0 0 0 0 0 0 0 -0 -0
0 0 0 0 0 0 -0 -0 0 -0 -0 -0 -0 -0 -0 -0 -0 0 0 0 0 0 0 0 0 0 0 0 -0 -0 -0 -0 -0 -0 -0 -0 0 0 0 -0 -0 -0 0 0 0 0 0 0 -0
0 0 0 0 0 0 -0 0 0 -0 -0 0 0 0 0 -0 -0 0 0 0 0 0 0 0 0 0 0 0 0 0 -0 -0 -0 -0 0 0 0 -0 -0 -0 0 0 0 0 -0 0 0 0 -0
0 0 0 0 0 0 0 0 0 -0 0 0 0 -0 -0 -0 -0 -0 -0 0 0 0 0 0 0 0 0 0 0 0 0 0 -0 0 0 0 0 0 0 0 0 0 0 0 0 0 0 0 0
0 0 0 0 0 0 -0 0 0 -0 0 0 0 -0 -0 -0 -0 -0 0 0 0 0 0 0 0 0 0 0 0 0 0 0 0 0 0 0 0 0 0 -0 -0 -0 0 0 0 0 0 0 0
0 0 0 0 0 0 0 0 0 0 0 -0 -0 -0 -0 -0 -0 -0 -0 0 0 0 0 0 0 0 0 0 0 0 -0 0 0 0 0 0 0 0 0 -0 0 0 -0 0 0 0 0 0 0
0 0 0 0 0 0 0 0 0 0 -0 0 -0 -0 -0 0 0 -0 0 0 0 0 -0 -0 0 0 0 0 0 0 0 0 0 0 0 0 0 0 0 0 0 0 0 0 0 0 0 0 0
0 0 0 0 0 0 -0 0 0 -0 -0 -0 -0 0 0 0 0 0 0 0 0 0 -0 0 -0 -0 0 -0 -0 0 0 0 0 0 0 0 0 0 0 -0 0 0 0 0 0 0 0 0 0
0 0 0 0 0 -0 -0 -0 0 -0 -0 -0 -0 0 0 0 0 -0 -0 -0 -0 0 0 0 -0 -0 -0 -0 0 0 0 0 0 0 0 0 0 0 0 -0 0 0 0 0 0 0 0 -0 0
0 0 0 0 -0 0 0 0 -0 0 -0 0 -0 -0 -0 -0 -0 -0 -0 0 0 -0 0 0 0 -0 -0 0 0 0 0 0 0 0 0 0 0 0 0 0 0 0 0 0 0 0 0 0 -0
0 0 0 0 -0 0 -0 0 -0 0 -0 -0 -0 -0 -0 -0 -0 0 -0 -0 0 -0 0 0 0 -0 -0 0 0 0 0 0 0 0 0 0 -0 -0 -0 0 0 0 0 0 0 0 0 0 -0
0 0 -0 -0 -0 -0 0 -0 0 0 0 0 0 -0 -0 -0 -0 -0 0 -0 0 0 0 -0 -0 -0 -0 0 0 0 0 0 0 0 0 0 -0 0 0 0 -0 0 0 0 0 0 0 0 0
0 0 -0 0 0 -0 -0 0 -0 0 0 0 0 -0 -0 -0 0 0 0 -0 0 0 0 -0 0 -0 0 0 0 0 0 0 0 0 0 0 -0 0 0 -0 -0 -0 0 0 0 0 0 0 0
0 0 0 0 0 0 0 -0 0 0 0 -0 -0 -0 -0 0 0 0 -0 -0 -0 0 0 0 -0 -0 0 0 0 0 0 0 0 0 0 -0 -0 0 0 0 0 0 0 0 0 0 0 -0 0
0 0 -0 0 0 0 0 -0 -0 0 0 0 0 0 -0 -0 -0 -0 -0 -0 -0 -0 -0 0 -0 -0 -0 0 0 0 0 0 0 0 0 0 -0 -0 -0 -0 -0 0 0 0 0 -0 -0 -0 0
0 -0 0 0 0 0 -0 -0 -0 0 0 0 0 0 -0 -0 -0 -0 -0 -0 -0 -0 -0 -0 -0 -0 -0 0 0 0 0 0 0 0 0 0 0 0 0 -0 0 -0 0 0 0 0 0 -0 -0
-0 -0 -0 0 0 0 0 0 0 0 -0 0 0 0 0 -0 -0 -0 -0 -0 -0 -0 -0 -0 0 -0 -0 -0 -0 -0 0 0 0 0 0 0 0 0 0 -0 0 0 0 -0 0 0 -0 -0 -0
0 0 0 0 0 0 0 0 -0 0 -0 0 0 0 0 -0 -0 -0 0 0 0 0 0 0 0 -0 0 -0 -0 -0 -0 0 0 0 0 0 -0 -0 0 0 0 0 0 -0 -0 -0 0 -0 0
0 0 0 0 0 0 0 0 -0 -0 -0 -0 -0 -0 0 0 0 -0 -0 0 -0 -0 -0 0 0 0 0 -0 -0 -0 -0 0 0 0 0 0 -0 -0 -0 0 0 0 0 0 0 0 0 -0 -0
0 0 0 0 0 0 -0 0 -0 -0 0 -0 0 -0 -0 -0 -0 -0 -0 -0 -0 -0 -0 -0 -0 0 -0 0 -0 0 0 -0 -0 -0 -0 0 -0 -0 0 -0 0 -0 0 0 0 0 0 -0 -0
0 -0 0 0 0 0 0 0 0 0 0 0 0 -0 -0 -0 -0 -0 -0 -0 -0 -0 -0 -0 -0 0 0 -0 0 0 0 0 0 -0 0 0 0 0 0 0 0 -0 -0 0 0 0 0 0 -0
0 0 0 0 0 0 0 -0 -0 -0 -0 -0 -0 0 0 -0 -0 -0 -0 -0 -0 -0 -0 -0 0 -0 0 0 0 0 0 0 0 0 0 0 0 0 0 0 0 -0 0 0 0 0 0 0 0
0 0 0 0 0 -0 0 -0 0 0 -0 -0 0 0 -0 -0 -0 -0 -0 -0 -0 -0 0 0 0 0 0 0 0 0 0 0 0 0 0 0 0 0 0 0 0 0 0 0 0 0 -0 0 0
0 0 0 0 -0 0 0 -0 -0 -0 -0 0 0 0 0 0 -0 -0 -0 -0 -0 -0 0 -0 0 0 0 0 0 0 0 0 0 0 0 0 0 0 0 0 0 0 0 0 0 0 0 0 0
Wind_Speed_500mb
6 9 8 1 6 8 2 7 2 13 7 9 18 7 9 9 4 4 18 44 47 45 42 37 33 29 25 23 25 26 25 23 22 22 22 21 18 16 16 15 12 12 11 12 17 18 18 18 18
3 5 2 3 8 5 3 6 18 17 16 18 19 11 8 2 3 13 47 38 44 43 41 36 31 27 26 24 24 23 22 19 17 17 19 19 18 17 16 15 15 16 16 14 15 15 15 17 19
5 6 1 7 5 2 7 4 11 18 20 16 5 9 3 2 7 43 42 42 45 40 36 34 30 26 24 23 24 22 19 15 13 15 14 16 17 17 18 17 17 16 14 16 15 17 17 16 17
6 4 8 7 4 4 4 4 12 21 17 13 13 7 8 6 28 21 42 47 41 36 33 28 26 27 23 23 21 20 16 12 12 17 16 19 20 20 22 20 19 17 20 20 20 19 17 16 19
10 6 7 5 1 6 6 6 7 11 15 18 5 4 9 24 20 32 39 38 35 34 32 27 25 25 22 21 19 17 16 15 14 17 18 17 19 19 19 19 18 18 18 20 18 16 14 13 14
7 4 6 5 4 7 5 8 4 9 16 8 8 10 5 17 23 32 35 34 31 32 32 27 24 24 22 20 16 15 18 16 16 17 17 19 20 19 17 17 16 17 16 13 13 12 12 10 11
6 6 4 3 3 7 2 4 3 12 7 4 16 6 8 23 35 34 32 29 30 28 26 27 22 21 19 14 13 17 21 19 18 21 21 18 16 16 17 16 16 14 14 13 11 10 11 10 9
1 6 2 6 7 7 4 1 8 6 5 14 13 11 11 33 40 37 33 30 30 27 24 21 22 20 16 15 16 23 26 21 18 19 19 19 17 16 16 16 16 14 14 11 11 9 12 13 11
7 6 4 6 7 4 9 2 8 5 21 4 9 4 10 42 44 41 38 38 34 22 21 22 19 18 17 14 19 28 28 21 18 21 22 20 19 17 16 14 13 13 11 9 8 8 9 15 13
7 4 5 2 6 3 11 2 8 6 14 5 4 7 32 44 45 43 40 37 31 24 21 21 17 17 14 14 19 30 26 21 17 18 22 20 19 16 14 12 9 9 8 7 1 8 12 14 19
7 4 3 7 10 9 13 5 8 20 5 11 17 35 47 44 45 38 35 30 26 24 22 19 20 18 17 19 22 25 27 21 22 24 22 17 17 16 16 15 10 6 4 3 6 2 7 19 21
4 8 3 7 9 6 7 3 10 11 2 6 19 36 44 44 46 41 35 29 27 27 18 21 21 20 23 26 25 30 23 22 27 21 22 18 19 15 12 8 10 11 13 3 7 12 7 4 7
4 1 7 10 10 9 11 5 5 19 22 11 31 40 43 40 38 35 31 25 27 26 25 21 21 24 28 30 29 28 22 26 23 21 19 17 14 9 8 8 9 4 1 2 5 13 6 7 8
5 7 5 5 10 5 12 7 2 5 29 31 39 44 42 40 35 34 33 30 28 26 26 21 22 28 33 30 28 31 25 27 21 19 18 16 10 7 6 4 4 10 9 7 3 15 3 7 4
4 4 5 6 9 4 8 7 7 18 37 41 44 45 42 41 38 34 30 29 28 28 29 24 25 26 36 30 29 29 24 25 22 19 17 16 8 7 6 7 4 8 7 8 3 10 10 16 6
6 5 3 7 15 2 14 8 9 17 36 36 41 43 45 42 42 36 33 27 28 29 33 28 26 26 35 33 33 28 25 23 22 23 15 14 10 9 9 6 5 7 3 7 7 5 7 17 7
8 4 4 2 20 7 4 9 13 19 37 41 41 45 48 44 44 42 38 33 29 28 33 34 28 30 33 36 30 27 25 25 27 26 16 13 15 11 11 6 3 6 5 3 4 4 6 2 4
6 4 8 8 11 9 9 16 12 19 19 31 42 50 55 51 48 41 39 37 34 30 32 34 30 31 34 36 32 25 26 29 32 24 14 9 16 16 8 11 13 15 12 9 7 9 10 11 7
3 6 9 4 9 12 16 12 21 23 23 36 43 33 53 57 50 41 39 39 33 33 37 38 36 38 38 39 34 30 28 27 29 20 14 13 11 12 11 11 16 17 18 14 10 11 15 10 7
8 1 11 1 2 6 2 22 17 17 20 42 46 41 45 53 50 43 41 40 35 34 40 43 45 42 40 38 35 28 27 27 21 21 15 19 15 10 11 17 18 19 21 16 11 11 11 10 9
8 9 7 3 6 3 6 15 13 11 35 37 38 44 50 52 51 47 45 41 36 37 41 45 48 45 41 37 38 34 27 34 27 22 17 18 18 14 14 13 9 10 18 16 15 10 10 10 7
8 15 14 8 2 3 1 9 11 6 12 18 40 49 48 52 53 53 47 45 40 35 37 43 46 46 39 38 42 36 28 28 22 20 13 18 17 14 14 13 10 10 11 11 10 9 7 3 2
15 14 11 6 3 8 3 2 12 6 10 15 31 50 50 52 51 58 55 45 39 34 35 37 42 47 45 43 42 38 34 30 25 21 23 22 21 19 15 15 16 11 11 11 9 7 7 7 4
3 12 14 9 7 5 5 7 12 6 11 7 16 47 52 49 46 50 55 47 43 36 34 38 43 46 47 45 45 44 38 34 30 28 21 25 20 22 20 17 17 15 11 11 10 9 8 10 11
11 12 7 7 6 11 7 5 17 11 15 10 19 46 54 54 48 49 55 53 48 41 36 37 44 47 49 48 49 49 43 38 38 30 29 25 22 25 26 22 19 13 9 9 15 10 8 9 12
12 16 11 9 6 8 2 9 11 7 16 6 10 38 47 49 51 49 47 55 51 44 39 38 38 44 49 53 53 52 48 46 43 38 32 28 24 20 22 20 20 14 12 8 13 21 14 12 12
10 8 9 12 6 6 5 13 16 3 7 10 15 27 41 45 47 49 50 51 50 49 46 43 37 38 42 49 53 55 54 51 46 41 35 31 28 26 27 27 24 21 22 15 15 24 16 11 14
13 14 7 5 1 5 9 10 10 3 9 9 11 20 30 38 43 48 51 51 51 51 47 49 44 38 35 42 47 48 52 53 49 44 41 36 32 32 31 28 26 25 25 25 22 21 21 17 13
4 2 12 11 8 10 2 12 12 14 14 17 21 27 18 22 36 47 45 44 46 50 47 51 52 45 43 44 42 44 47 49 50 51 47 44 40 37 39 39 38 36 33 33 30 29 28 26 20
6 15 12 10 8 4 6 12 8 13 14 15 20 28 20 12 17 30 40 42 40 40 44 44 53 53 47 40 47 46 45 45 49 51 51 49 50 48 47 42 41 38 31 31 34 35 32 28 20
Wind_Direction_500mb
106 38 20 21 57 70 62 92 6 330 345 351 149 135 133 60 120 200 152 160 161 156 155 154 157 166 157 148 149 147 145 150 159 164 168 168 170 169 169 172 171 176 169 156 140 152 154 160 162
208 331 49 113 80 90 329 77 45 33 102 57 82 84 49 79 110 143 146 149 160 156 156 156 156 166 163 154 156 153 155 157 162 169 173 169 166 176 172 167 162 158 155 155 155 150 150 151 154
84 9 286 81 60 159 132 110 64 343 320 341 90 71 69 91 143 138 153 152 159 161 160 160 163 168 165 161 160 159 166 158 152 146 146 160 168 170 159 155 154 153 156 163 158 140 147 144 151
358 339 59 82 135 233 276 68 21 349 14 60 97 62 71 59 126 137 146 151 160 163 164 165 169 167 170 167 169 172 173 164 151 147 138 132 132 139 139 153 160 152 148 147 149 146 140 145 150
7 26 49 12 299 195 219 313 331 320 307 305 172 141 96 138 121 142 146 153 161 160 159 162 165 160 158 158 164 172 178 163 149 147 145 141 141 141 138 140 143 145 142 143 147 144 151 160 165
21 45 31 334 295 336 328 330 302 295 298 136 108 108 148 179 163 146 147 153 159 158 155 160 163 160 166 170 175 177 182 165 155 158 141 137 143 147 146 142 145 147 142 149 142 140 144 157 183
123 87 234 308 244 348 251 12 116 225 150 151 146 84 154 164 172 158 150 156 160 157 163 161 163 170 175 188 189 177 181 151 146 139 140 154 150 155 146 159 153 143 145 142 134 140 156 160 174
150 95 184 250 181 233 141 223 187 202 146 148 179 159 182 176 174 162 157 161 160 158 172 179 173 188 190 175 174 177 168 152 150 135 151 140 146 146 145 149 156 147 137 142 150 170 179 180 196
188 65 269 229 170 187 149 327 84 166 143 131 192 210 214 163 169 166 165 162 161 175 191 191 191 192 172 163 171 180 169 153 146 150 154 156 144 136 134 137 154 156 146 164 160 198 213 211 222
139 123 257 126 172 172 148 113 350 136 154 85 97 209 163 167 176 176 176 173 179 187 184 191 187 166 175 171 181 178 168 155 147 143 143 147 136 134 123 118 115 124 139 138 229 248 254 242 239
165 194 301 340 180 166 132 89 357 141 243 230 181 161 165 177 184 189 193 192 185 185 184 179 172 172 179 180 170 167 162 157 154 150 148 147 131 124 116 120 116 120 104 127 25 40 245 252 236
166 35 83 145 147 133 86 49 8 195 138 281 196 167 173 185 193 200 207 203 193 189 183 174 175 172 176 179 161 158 155 153 149 155 155 147 132 118 112 121 92 89 84 107 242 337 287 354 236
63 158 78 140 144 140 111 141 269 253 240 203 167 182 186 193 203 207 212 208 191 188 176 170 175 166 173 167 166 166 161 156 155 169 171 156 140 126 108 104 74 80 50 45 352 343 334 292 313
358 64 134 86 160 111 123 299 324 319 185 174 181 192 200 203 205 212 219 207 203 190 177 178 173 171 169 165 168 171 166 166 162 174 187 175 163 159 123 130 53 36 50 30 87 34 181 294 354
27 279 186 139 142 244 202 322 203 165 172 180 192 199 209 214 217 220 222 220 207 200 193 182 175 184 178 172 172 173 175 180 180 181 182 191 186 193 119 116 90 55 51 57 209 89 34 206 207
12 15 0 153 144 288 167 253 207 176 182 192 200 208 217 221 225 228 230 228 217 208 202 190 183 181 180 181 176 180 176 188 192 188 185 197 198 177 155 123 91 37 79 56 86 102 26 162 150
18 263 297 262 187 122 230 266 209 184 198 205 211 220 221 228 230 231 233 234 232 212 204 196 187 180 181 179 183 185 191 191 189 192 204 225 209 191 201 204 287 337 359 25 4 351 359 53 224
292 248 256 250 176 161 203 260 258 200 211 216 219 223 230 230 235 230 231 234 237 221 212 203 200 184 184 183 182 195 196 190 189 200 188 201 209 205 214 224 252 283 306 311 326 302 315 321 298
189 202 243 251 182 158 219 242 253 224 211 236 238 238 232 234 233 234 230 234 230 219 214 206 203 192 189 189 191 193 205 197 193 189 196 207 206 214 230 249 255 277 293 313 276 307 315 327 335
204 48 266 205 144 184 329 260 244 226 228 228 234 230 223 225 224 223 225 227 227 215 212 210 204 201 202 202 202 199 206 203 208 209 211 208 210 217 239 254 258 265 282 294 284 305 317 323 323
250 192 252 321 89 78 360 288 247 232 217 234 233 226 221 218 218 218 214 217 223 216 212 209 203 202 208 208 202 201 204 210 211 216 217 209 225 244 244 247 246 274 278 279 282 290 295 306 347
255 207 241 126 268 261 243 279 293 298 238 205 218 212 208 214 224 224 216 215 218 219 214 208 205 204 204 204 199 203 207 207 210 220 234 222 229 246 252 240 242 286 277 272 280 261 276 249 221
239 133 203 105 360 357 3 357 270 21 277 234 216 212 208 214 227 225 219 218 218 217 214 211 205 207 208 207 206 212 220 213 216 224 227 236 243 248 260 247 255 275 295 243 259 236 239 242 221
53 71 54 46 47 317 276 177 283 220 218 263 201 213 211 210 222 227 222 218 220 220 218 216 210 206 207 211 215 217 222 220 222 229 238 243 243 236 251 262 261 265 298 234 228 220 241 238 231
80 65 358 348 353 227 278 151 250 268 253 237 205 201 210 213 216 219 219 219 220 220 221 218 216 211 210 214 218 221 223 225 230 241 245 244 251 259 249 259 265 266 281 240 223 215 242 244 243
165 154 161 218 208 267 338 239 254 219 312 219 264 201 204 209 216 222 223 223 223 223 223 224 217 216 214 217 221 223 227 232 236 241 244 244 252 254 244 257 255 254 264 261 252 231 240 262 245
166 157 190 98 13 43 263 293 310 134 47 100 141 178 194 208 217 224 224 224 229 233 228 228 225 219 218 223 226 230 232 234 239 240 246 248 246 244 249 260 258 259 251 268 266 237 240 237 242
160 156 80 345 138 282 305 287 241 261 214 180 163 188 197 210 221 229 233 233 233 237 237 232 232 231 232 231 232 236 237 237 240 240 245 247 250 253 255 259 252 258 257 254 250 232 233 243 251
141 147 58 117 122 156 239 269 215 214 200 190 191 188 190 208 220 226 234 239 242 242 242 239 239 241 238 240 241 245 245 246 245 246 249 253 254 256 257 262 262 258 265 256 246 244 243 243 259
206 170 139 127 225 108 148 274 222 223 230 240 198 190 185 221 235 228 232 240 244 248 248 246 242 242 246 247 243 247 248 249 250 251 253 254 257 259 258 262 264 261 257 241 245 247 254 244 257
Wind_Speed_850mb
6 9 8 1 6 8 2 7 2 13 7 9 18 7 9 9 4 4 18 44 47 45 42 37 33 29 25 23 25 26 25 23 22 22 22 21 18 16 16 15 12 12 11 12 17 18 18 18 18
3 5 2 3 8 5 3 6 18 17 16 18 19 11 8 2 3 13 47 38 44 43 41 36 31 27 26 24 24 23 22 19 17 17 19 19 18 17 16 15 15 16 16 14 15 15 15 17 19
5 6 1 7 5 2 7 4 11 18 20 16 5 9 3 2 7 43 42 42 45 40 36 34 30 26 24 23 24 22 19 15 13 15 14 16 17 17 18 17 17 16 14 16 15 17 17 16 17
6 4 8 7 4 4 4 4 12 21 17 13 13 7 8 6 28 21 42 47 41 36 33 28 26 27 23 23 21 20 16 12 12 17 16 19 20 20 22 20 19 17 20 20 20 19 17 16 19
10 6 7 5 1 6 6 6 7 11 15 18 5 4 9 24 20 32 39 38 35 34 32 27 25 25 22 21 19 17 16 15 14 17 18 17 19 19 19 19 18 18 18 20 18 16 14 13 14
7 4 6 5 4 7 5 8 4 9 16 8 8 10 5 17 23 32 35 34 31 32 32 27 24 24 22 20 16 15 18 16 16 17 17 19 20 19 17 17 16 17 16 13 13 12 12 10 11
6 6 4 3 3 7 2 4 3 12 7 4 16 6 8 23 35 34 32 29 30 28 26 27 22 21 19 14 13 17 21 19 18 21 21 18 16 16 17 16 16 14 14 13 11 10 11 10 9
1 6 2 6 7 7 4 1 8 6 5 14 13 11 11 33 40 37 33 30 30 27 24 21 22 20 16 15 16 23 26 21 18 19 19 19 17 16 16 16 16 14 14 11 11 9 12 13 11
7 6 4 6 7 4 9 2 8 5 21 4 9 4 10 42 44 41 38 38 34 22 21 22 19 18 17 14 19 28 28 21 18 21 22 20 19 17 16 14 13 13 11 9 8 8 9 15 13
7 4 5 2 6 3 11 2 8 6 14 5 4 7 32 44 45 43 40 37 31 24 21 21 17 17 14 14 19 30 26 21 17 18 22 20 19 16 14 12 9 9 8 7 1 8 12 14 19
7 4 3 7 10 9 13 5 8 20 5 11 17 35 47 44 45 38 35 30 26 24 22 19 20 18 17 19 22 25 27 21 22 24 22 17 17 16 16 15 10 6 4 3 6 2 7 19 21
4 8 3 7 9 6 7 3 10 11 2 6 19 36 44 44 46 41 35 29 27 27 18 21 21 20 23 26 25 30 23 22 27 21 22 18 19 15 12 8 10 11 13 3 7 12 7 4 7
4 1 7 10 10 9 11 5 5 19 22 11 31 40 43 40 38 35 31 25 27 26 25 21 21 24 28 30 29 28 22 26 23 21 19 17 14 9 8 8 9 4 1 2 5 13 6 7 8
5 7 5 5 10 5 12 7 2 5 29 31 39 44 42 40 35 34 33 30 28 26 26 21 22 28 33 30 28 31 25 27 21 19 18 16 10 7 6 4 4 10 9 7 3 15 3 7 4
4 4 5 6 9 4 8 7 7 18 37 41 44 45 42 41 38 34 30 29 28 28 29 24 25 26 36 30 29 29 24 25 22 19 17 16 8 7 6 7 4 8 7 8 3 10 10 16 6
6 5 3 7 15 2 14 8 9 17 36 36 41 43 45 42 42 36 33 27 28 29 33 28 26 26 35 33 33 28 25 23 22 23 15 14 10 9 9 6 5 7 3 7 7 5 7 17 7
8 4 4 2 20 7 4 9 13 19 37 41 41 45 48 44 44 42 38 33 29 28 33 34 28 30 33 36 30 27 25 25 27 26 16 13 15 11 11 6 3 6 5 3 4 4 6 2 4
6 4 8 8 11 9 9 16 12 19 19 31 42 50 55 51 48 41 39 37 34 30 32 34 30 31 34 36 32 25 26 29 32 24 14 9 16 16 8 11 13 15 12 9 7 9 10 11 7
3 6 9 4 9 12 16 12 21 23 23 36 43 33 53 57 50 41 39 39 33 33 37 38 36 38 38 39 34 30 28 27 29 20 14 13 11 12 11 11 16 17 18 14 10 11 15 10 7
8 1 11 1 2 6 2 22 17 17 20 42 46 41 45 53 50 43 41 40 35 34 40 43 45 42 40 38 35 28 27 27 21 21 15 19 15 10 11 17 18 19 21 16 11 11 11 10 9
8 9 7 3 6 3 6 15 13 11 35 37 38 44 50 52 51 47 45 41 36 37 41 45 48 45 41 37 38 34 27 34 27 22 17 18 18 14 14 13 9 10 18 16 15 10 10 10 7
8 15 14 8 2 3 1 9 11 6 12 18 40 49 48 52 53 53 47 45 40 35 37 43 46 46 39 38 42 36 28 28 22 20 13 18 17 14 14 13 10 10 11 11 10 9 7 3 2
15 14 11 6 3 8 3 2 12 6 10 15 31 50 50 52 51 58 55 45 39 34 35 37 42 47 45 43 42 38 34 30 25 21 23 22 21 19 15 15 16 11 11 11 9 7 7 7 4
3 12 14 9 7 5 5 7 12 6 11 7 16 47 52 49 46 50 55 47 43 36 34 38 43 46 47 45 45 44 38 34 30 28 21 25 20 22 20 17 17 15 11 11 10 9 8 10 11
11 12 7 7 6 11 7 5 17 11 15 10 19 46 54 54 48 49 55 53 48 41 36 37 44 47 49 48 49 49 43 38 38 30 29 25 22 25 26 22 19 13 9 9 15 10 8 9 12
12 16 11 9 6 8 2 9 11 7 16 6 10 38 47 49 51 49 47 55 51 44 39 38 38 44 49 53 53 52 48 46 43 38 32 28 24 20 22 20 20 14 12 8 13 21 14 12 12
10 8 9 12 6 6 5 13 16 3 7 10 15 27 41 45 47 49 50 51 50 49 46 43 37 38 42 49 53 55 54 51 46 41 35 31 28 26 27 27 24 21 22 15 15 24 16 11 14
13 14 7 5 1 5 9 10 10 3 9 9 11 20 30 38 43 48 51 51 51 51 47 49 44 38 35 42 47 48 52 53 49 44 41 36 32 32 31 28 26 25 25 25 22 21 21 17 13
4 2 12 11 8 10 2 12 12 14 14 17 21 27 18 22 36 47 45 44 46 50 47 51 52 45 43 44 42 44 47 49 50 51 47 44 40 37 39 39 38 36 33 33 30 29 28 26 20
6 15 12 10 8 4 6 12 8 13 14 15 20 28 20 12 17 30 40 42 40 40 44 44 53 53 47 40 47 46 45 45 49 51 51 49 50 48 47 42 41 38 31 31 34 35 32 28 20
Wind_Direction_850mb
106 38 20 21 57 70 62 92 6 330 345 351 149 135 133 60 120 200 152 160 161 156 155 154 157 166 157 148 149 147 145 150 159 164 168 168 170 169 169 172 171 176 169 156 140 152 154 160 162
208 331 49 113 80 90 329 77 45 33 102 57 82 84 49 79 110 143 146 149 160 156 156 156 156 166 163 154 156 153 155 157 162 169 173 169 166 176 172 167 162 158 155 155 155 150 150 151 154
84 9 286 81 60 159 132 110 64 343 320 341 90 71 69 91 143 138 153 152 159 161 160 160 163 168 165 161 160 159 166 158 152 146 146 160 168 170 159 155 154 153 156 163 158 140 147 144 151
358 339 59 82 135 233 276 68 21 349 14 60 97 62 71 59 126 137 146 151 160 163 164 165 169 167 170 167 169 172 173 164 151 147 138 132 132 139 139 153 160 152 148 147 149 146 140 145 150
7 26 49 12 299 195 219 313 331 320 307 305 172 141 96 138 121 142 146 153 161 160 159 162 165 160 158 158 164 172 178 163 149 147 145 141 141 141 138 140 143 145 142 143 147 144 151 160 165
21 45 31 334 295 336 328 330 302 295 298 136 108 108 148 179 163 146 147 153 159 158 155 160 163 160 166 170 175 177 182 165 155 158 141 137 143 147 146 142 145 147 142 149 142 140 144 157 183
123 87 234 308 244 348 251 12 116 225 150 151 146 84 154 164 172 158 150 156 160 157 163 161 163 170 175 188 189 177 181 151 146 139 140 154 150 155 146 159 153 143 145 142 134 140 156 160 174
150 95 184 250 181 233 141 223 187 202 146 148 179 159 182 176 174 162 157 161 160 158 172 179 173 188 190 175 174 177 168 152 150 135 151 140 146 146 145 149 156 147 137 142 150 170 179 180 196
188 65 269 229 170 187 149 327 84 166 143 131 192 210 214 163 169 166 165 162 161 175 191 191 191 192 172 163 171 180 169 153 146 150 154 156 144 136 134 137 154 156 146 164 160 198 213 211 222
139 123 257 126 172 172 148 113 350 136 154 85 97 209 163 167 176 176 176 173 179 187 184 191 187 166 175 171 181 178 168 155 147 143 143 147 136 134 123 118 115 124 139 138 229 248 254 242 239
165 194 301 340 180 166 132 89 357 141 243 230 181 161 165 177 184 189 193 192 185 185 184 179 172 172 179 180 170 167 162 157 154 150 148 147 131 124 116 120 116 120 104 127 25 40 245 252 236
166 35 83 145 147 133 86 49 8 195 138 281 196 167 173 185 193 200 207 203 193 189 183 174 175 172 176 179 161 158 155 153 149 155 155 147 132 118 112 121 92 89 84 107 242 337 287 354 236
63 158 78 140 144 140 111 141 269 253 240 203 167 182 186 193 203 207 212 208 191 188 176 170 175 166 173 167 166 166 161 156 155 169 171 156 140 126 108 104 74 80 50 45 352 343 334 292 313
358 64 134 86 160 111 123 299 324 319 185 174 181 192 200 203 205 212 219 207 203 190 177 178 173 171 169 165 168 171 166 166 162 174 187 175 163 159 123 130 53 36 50 30 87 34 181 294 354
27 279 186 139 142 244 202 322 203 165 172 180 192 199 209 214 217 220 222 220 207 200 193 182 175 184 178 172 172 173 175 180 180 181 182 191 186 193 119 116 90 55 51 57 209 89 34 206 207
12 15 0 153 144 288 167 253 207 176 182 192 200 208 217 221 225 228 230 228 217 208 202 190 183 181 180 181 176 180 176 188 192 188 185 197 198 177 155 123 91 37 79 56 86 102 26 162 150
18 263 297 262 187 122 230 266 209 184 198 205 211 220 221 228 230 231 233 234 232 212 204 196 187 180 181 179 183 185 191 191 189 192 204 225 209 191 201 204 287 337 359 25 4 351 359 53 224
292 248 256 250 176 161 203 260 258 200 211 216 219 223 230 230 235 230 231 234 237 221 212 203 200 184 184 183 182 195 196 190 189 200 188 201 209 205 214 224 252 283 306 311 326 302 315 321 298
189 202 243 251 182 158 219 242 253 224 211 236 238 238 232 234 233 234 230 234 230 219 214 206 203 192 189 189 191 193 205 197 193 189 196 207 206 214 230 249 255 277 293 313 276 307 315 327 335
204 48 266 205 144 184 329 260 244 226 228 228 234 230 223 225 224 223 225 227 227 215 212 210 204 201 202 202 202 199 206 203 208 209 211 208 210 217 239 254 258 265 282 294 284 305 317 323 323
250 192 252 321 89 78 360 288 247 232 217 234 233 226 221 218 218 218 214 217 223 216 212 209 203 202 208 208 202 201 204 210 211 216 217 209 225 244 244 247 246 274 278 279 282 290 295 306 347
255 207 241 126 268 261 243 279 293 298 238 205 218 212 208 214 224 224 216 215 218 219 214 208 205 204 204 204 199 203 207 207 210 220 234 222 229 246 252 240 242 286 277 272 280 261 276 249 221
239 133 203 105 360 357 3 357 270 21 277 234 216 212 208 214 227 225 219 218 218 217 214 211 205 207 208 207 206 212 220 213 216 224 227 236 243 248 260 247 255 275 295 243 259 236 239 242 221
53 71 54 46 47 317 276 177 283 220 218 263 201 213 211 210 222 227 222 218 220 220 218 216 210 206 207 211 215 217 222 220 222 229 238 243 243 236 251 262 261 265 298 234 228 220 241 238 231
80 65 358 348 353 227 278 151 250 268 253 237 205 201 210 213 216 219 219 219 220 220 221 218 216 211 210 214 218 221 223 225 230 241 245 244 251 259 249 259 265 266 281 240 223 215 242 244 243
165 154 161 218 208 267 338 239 254 219 312 219 264 201 204 209 216 222 223 223 223 223 223 224 217 216 214 217 221 223 227 232 236 241 244 244 252 254 244 257 255 254 264 261 252 231 240 262 245
166 157 190 98 13 43 263 293 310 134 47 100 141 178 194 208 217 224 224 224 229 233 228 228 225 219 218 223 226 230 232 234 239 240 246 248 246 244 249 260 258 259 251 268 266 237 240 237 242
160 156 80 345 138 282 305 287 241 261 214 180 163 188 197 210 221 229 233 233 233 237 237 232 232 231 232 231 232 236 237 237 240 240 245 247 250 253 255 259 252 258 257 254 250 232 233 243 251
141 147 58 117 122 156 239 269 215 214 200 190 191 188 190 208 220 226 234 239 242 242 242 239 239 241 238 240 241 245 245 246 245 246 249 253 254 256 257 262 262 258 265 256 246 244 243 243 259
206 170 139 127 225 108 148 274 222 223 230 240 198 190 185 221 235 228 232 240 244 248 248 246 242 242 246 247 243 247 248 249 250 251 253 254 257 259 258 262 264 261 257 241 245 247 254 244 257